Milford, UT

5:31 AM MDT on July 26, 2017 (GMT -0600)
Milford Municipal

Weather History for KMLF - August, 2014

Change the Weather History Date:

Monday, August 25, 2014

  Actual Average Record
Temperature  
Mean Temperature 72 °F -  
Max Temperature 87 °F 87 °F 99 °F (2007)
Min Temperature 57 °F 52 °F 48 °F (2001)
Cooling Degree Days 7    
Growing Degree Days 22 (Base 50)    
Moisture  
Dew Point 40 °F    
Average Humidity 30    
Maximum Humidity 51    
Minimum Humidity 11    
Precipitation  
Precipitation 0.00 in - - ()
Sea Level Pressure  
Sea Level Pressure 29.82 in    
Wind  
Wind Speed 15 mph (SSW)    
Max Wind Speed 29 mph    
Max Gust Speed 36 mph    
Visibility 10 miles    
Events      
Averages and records for this station are not official NWS values.
T = Trace of Precipitation, MM = Missing Value Source: NWS Daily Summary

Daily Weather History Graph

Daily Weather History Graph

Search for Another Location

Airport or City:

Trip Planner

Search our weather history database for the weather conditions in past years. The results will help you decide how hot, cold, wet, or windy it might be!

Date:

Astronomy

Aug. 25, 2014 Rise Set
Actual Time 6:55 AM MDT 8:12 PM MDT
Civil Twilight 6:27 AM MDT 8:39 PM MDT
Nautical Twilight 5:54 AM MDT 9:12 PM MDT
Astronomical Twilight 5:20 AM MDT 9:46 PM MDT
Moon 7:03 AM MDT (8/25) 8:05 PM MDT (8/25)
Length of Visible Light 14h 11m
Length of Day
13h 16m
New Moon, 0% of the Moon is Illuminated
Aug 25
New Moon
Sep 2
First Quarter
Sep 8
Full
Sep 15
Last Quarter
Sep 24
New

Hourly Weather History & Observations

Time (MDT) Temp. Dew Point Humidity Pressure Visibility Wind Dir Wind Speed Gust Speed Precip Events Conditions
12:52 AM 66.0 °F 42.1 °F 42% 29.79 in 10.0 mi SSW 16.1 mph - N/A   Clear
1:52 AM 66.0 °F 42.1 °F 42% 29.79 in 10.0 mi South 11.5 mph - N/A   Clear
2:52 AM 63.0 °F 42.1 °F 46% 29.79 in 10.0 mi South 12.7 mph - N/A   Clear
3:52 AM 60.1 °F 42.1 °F 51% 29.80 in 10.0 mi SSW 10.4 mph - N/A   Clear
4:52 AM 59.0 °F 41.0 °F 51% 29.81 in 10.0 mi WSW 10.4 mph - N/A   Clear
5:52 AM 60.1 °F 39.9 °F 47% 29.81 in 10.0 mi WSW 8.1 mph - N/A   Clear
6:52 AM 60.1 °F 41.0 °F 49% 29.82 in 10.0 mi SSW 4.6 mph - N/A   Clear
7:52 AM 64.4 °F 41.0 °F 42% 30.02 in 10.0 mi WSW 8.1 mph - N/A   Clear
8:52 AM 70.0 °F 42.1 °F 36% 29.83 in 10.0 mi SW 9.2 mph - N/A   Clear
9:52 AM 75.0 °F 46.9 °F 37% 29.83 in 10.0 mi South 11.5 mph 21.9 mph N/A   Clear
10:52 AM 79.0 °F 43.0 °F 28% 29.83 in 10.0 mi South 23.0 mph - N/A   Clear
11:52 AM 81.0 °F 39.9 °F 23% 29.82 in 10.0 mi South 17.3 mph 29.9 mph N/A   Clear
12:52 PM 84.0 °F 39.0 °F 20% 29.80 in 10.0 mi South 24.2 mph 31.1 mph N/A   Clear
1:52 PM 84.9 °F 37.9 °F 19% 29.78 in 10.0 mi South 28.8 mph 35.7 mph N/A   Clear
2:52 PM 84.9 °F 39.9 °F 20% 29.77 in 10.0 mi SSW 24.2 mph 32.2 mph N/A   Clear
3:52 PM 86.0 °F 39.0 °F 19% 29.76 in 10.0 mi SSW 25.3 mph 33.4 mph N/A   Partly Cloudy
4:52 PM 86.0 °F 37.9 °F 18% 29.75 in 10.0 mi South 25.3 mph 32.2 mph N/A   Clear
5:52 PM 86.0 °F 39.0 °F 19% 29.75 in 10.0 mi SSW 25.3 mph 31.1 mph N/A   Mostly Cloudy
6:52 PM 84.0 °F 37.0 °F 19% 29.75 in 10.0 mi SW 24.2 mph 31.1 mph N/A   Mostly Cloudy
7:52 PM 78.8 °F 39.2 °F 24% 29.95 in 10.0 mi SW 20.7 mph 31.1 mph N/A   Partly Cloudy
8:52 PM 75.2 °F 35.6 °F 24% 29.99 in 10.0 mi SW 16.1 mph - N/A   Clear
9:52 PM 66.9 °F 41.0 °F 39% 29.83 in 10.0 mi South 9.2 mph - N/A   Partly Cloudy
10:52 PM 64.9 °F 41.0 °F 42% 29.84 in 10.0 mi South 6.9 mph - N/A   Clear
11:52 PM 68.0 °F 39.9 °F 36% 29.85 in 10.0 mi South 11.5 mph - N/A   Clear